Flag for Madagascar Weather past 2 weeks in Antananarivo, Madagascar

Now
64 °F

Broken clouds.


Feels Like: 64 °F
Forecast: 65 / 74 °F
Wind: 16 mph from Southeast

Location: Antananarivo / Ivato

Current Time: Mar 4, 2015 at 7:00:44 AM

Latest Report: Mar 4, 2015 at 6:30 AM


Visibility: 6 mi

Pressure: 30.07 "Hg

Humidity: 100%

Dew point: 64 °F

Location of AntananarivoLocation

Historic Weather in Antananarivo — Graph

°F

Antananarivo temperature yesterday

Maximum temperature yesterday: 81 °F (at 3:30 PM)
Minimum temperature yesterday: 64 °F (at 6:00 AM)
Average temperature yesterday: 70 °F

Past Weeks' High & Low Weather Summary

 TemperatureHumidityPressure
High84 °F (Feb 18, 2:02 PM)100% (Feb 17, 6:00 AM)30.18 "Hg (Feb 17, 6:00 AM)
Low61 °F (Mar 1, 5:30 AM)66% (Feb 20, 3:00 PM)29.92 "Hg (Feb 25, 3:00 PM)
Average70 °F95%30.05 "Hg
* Reported Feb 17 6:00 AM — Mar 4 6:00 AM, Antananarivo, Weather by CustomWeather, © 2015

Note: Actual official high and low records may vary slightly from our data, if they occured in-between our weather recording intervals... More about our weather records

Advertising

Antananarivo weather history for previous 24 hours

 ConditionsComfort  
Time TempWeatherWind HumidityBarometerVisibility
6:00 AM
Wed, Mar 4
64 °FBroken clouds.13 mph100%30.07 "HgN/A
5:30 AM64 °FPartly cloudy.9 mph100%30.07 "HgN/A
5:00 AM64 °FPartly cloudy.8 mph100%30.07 "HgN/A
4:30 AM64 °FPartly cloudy.7 mph100%30.07 "HgN/A
4:00 AM64 °FPartly cloudy.5 mph100%30.07 "HgN/A
3:30 AM64 °FLight rain. Partly cloudy.6 mph100%30.07 "Hg3 mi
3:00 AM64 °FLight rain. Partly cloudy.8 mph100%N/A3 mi
2:30 AM64 °FPartly cloudy.10 mph100%N/A5 mi
2:00 AM66 °FPartly cloudy.14 mph100%30.07 "HgN/A
1:30 AM66 °FPassing clouds.10 mph100%30.07 "HgN/A
1:00 AM66 °FPassing clouds.12 mph100%30.07 "HgN/A
12:00 AM66 °FPassing clouds.9 mph100%30.09 "HgN/A
11:30 PM
Tue, Mar 3
66 °FPassing clouds.8 mph100%30.09 "HgN/A
11:00 PM66 °FPassing clouds.7 mph100%30.09 "HgN/A
10:30 PM68 °FPassing clouds.9 mph100%30.09 "HgN/A
10:00 PM68 °FPassing clouds.12 mph100%30.09 "HgN/A
9:30 PM68 °FPartly cloudy.7 mph100%30.09 "HgN/A
9:00 PM70 °FPartly cloudy.9 mph100%30.09 "HgN/A
8:30 PM70 °FPartly cloudy.7 mph100%30.09 "HgN/A
8:00 PM70 °FPartly cloudy.7 mph100%30.07 "HgN/A
7:30 PM70 °FPartly cloudy.7 mph100%30.07 "HgN/A
7:00 PM70 °FPartly cloudy.10 mph100%30.07 "HgN/A
6:30 PM70 °FPartly cloudy.8 mph100%30.04 "HgN/A
6:00 PM72 °FBroken clouds.12 mph100%30.04 "HgN/A
5:30 PM73 °FBroken clouds.14 mph94%30.04 "HgN/A
5:00 PM73 °FBroken clouds.15 mph94%30.01 "HgN/A
4:30 PM77 °FBroken clouds.14 mph83%29.98 "HgN/A
4:00 PM77 °FBroken clouds.14 mph83%29.98 "HgN/A
3:30 PM81 °FBroken clouds.9 mph84%30.01 "HgN/A
3:00 PM77 °FBroken clouds.8 mph83%30.01 "HgN/A
2:30 PM79 °FBroken clouds.9 mph94%30.01 "HgN/A
2:00 PM77 °FBroken clouds.10 mph94%30.01 "HgN/A
1:30 PM75 °FBroken clouds.10 mph94%30.04 "HgN/A
1:00 PM75 °FBroken clouds.9 mph100%30.04 "HgN/A
12:30 PM73 °FLight rain. Broken clouds.10 mph100%30.07 "Hg6 mi
12:00 PM73 °FBroken clouds.3 mph100%30.07 "Hg6 mi
11:30 AM72 °FDrizzle. Broken clouds.6 mph100%30.09 "Hg5 mi
11:00 AM73 °FDrizzle. Overcast.2 mph100%30.09 "Hg5 mi
10:30 AM72 °FLow clouds.2 mph100%30.09 "Hg6 mi
10:00 AM70 °FDrizzle. Low clouds.No wind100%30.09 "Hg5 mi
9:30 AM70 °FDrizzle. Low clouds.2 mph100%30.09 "Hg5 mi
9:00 AM68 °FDrizzle. Low clouds.7 mph100%30.09 "Hg5 mi
8:30 AM70 °FPartly sunny.8 mph100%30.09 "HgN/A
8:00 AM68 °FPartly sunny.6 mph100%30.07 "HgN/A
7:30 AM68 °FPartly sunny.5 mph100%30.07 "HgN/A
7:00 AM66 °FPartly sunny.No wind100%30.07 "HgN/A
Weather by CustomWeather, © 2015

See weather overviewHow to use our weather pages